Regional Weather Roundup
Issued by NWS

Home | Current Version | Previous Version | Text Only | Print | Product List | Glossary Off
Versions: 1 2 3 4 5 6 7 8 9 10 11 12 13 14 15 16 17 18 19 20 21 22 23 24 25 26 27 28 29 30 31 32 33 34 35 36 37 38 39 40 41 42 43 44 45 46 47 48 49 50

000
ASUS43 KLOT 242109
RWRIL

ILLINOIS REGIONAL WEATHER ROUNDUP
NATIONAL WEATHER SERVICE CHICAGO/ROMEOVILLE IL
400 PM CDT SUN SEP 24 2017

NOTE: "FAIR" INDICATES FEW OR NO CLOUDS BELOW 12,000 FEET WITH NO
SIGNIFICANT WEATHER AND/OR OBSTRUCTIONS TO VISIBILITY.

* THESE STATIONS ARE NOT UNDER NWS QUALITY CONTROL. THEY ALSO MAY NOT
  REPORT WEATHER SUCH AS PRECIPITATION OR FOG.

ILZ001-002-007-009-015-016-024-242200-
NORTHWEST ILLINOIS

CITY           SKY/WX    TMP DP  RH WIND       PRES   REMARKS
MOLINE         MOSUNNY   89  61  38 S9        29.96F HX  89
STERLING*      SUNNY     90  61  37 VRB6      29.99F HX  90
SAVANNA*       SUNNY     90  62  39 SW9       29.98F HX  90
$$

ILZ003-004-008-010-011-017-018-242200-
NORTH CENTRAL ILLINOIS

CITY           SKY/WX    TMP DP  RH WIND       PRES   REMARKS
ROCKFORD       MOSUNNY   89  58  34 S12       30.01F HX  88
FREEPORT*      MOSUNNY   88  59  37 SW12      30.01F HX  87
ROCHELLE*      MOSUNNY   89  61  38 S3        30.01F HX  89
DE KALB*       MOSUNNY   89  61  39 S9        30.03F HX  89
PERU*          SUNNY     89  59  36 S7        30.00F HX  88
$$

ILZ005-006-012>014-019>023-242200-
NORTHEAST ILLINOIS

CITY           SKY/WX    TMP DP  RH WIND       PRES   REMARKS
CHICAGO-OHARE  MOSUNNY   92  58  31 S8        30.00F HX  91
CHICAGO-MIDWAY MOSUNNY   91  58  32 SE8       30.00F HX  90
AURORA         MOSUNNY   89  61  38 S9        30.01F HX  89
LANSING*       SUNNY     91  63  39 SE7       30.01F HX  91
JOLIET*        MOSUNNY   91  60  35 S5        30.00F HX  91
WAUKEGAN       SUNNY     82  66  58 SE10      30.02F HX  84
DUPAGE AIRPORT SUNNY     88  60  38 S10       30.01F HX  87
KANKAKEE*      SUNNY     89  61  38 S5        30.02F HX  89
WHEELING       MOSUNNY   89  64  43 E10       30.02F HX  90
MORRIS*        SUNNY     91  59  34 S7        29.99F HX  90
ROMEOVILLE*    MOSUNNY   90  59  35 SE9       30.01F HX  89
NORTHERLY ISL    N/A     79  66  64 E9          N/A  HX  81
$$

LMZ740>746-242200-
SOUTHERN LAKE MICHIGAN

STATION/POSITION SKY/WX   TEMP    WIND        PRES    VSBY  WAVE
                          AIR SEA DIR/SP/G                  HT/PER
                          (F)     (DEG/KT/KT) (MB)    (MI)  (FT/S)
SOUTHERN BUOY              73 72  140/  6/  6 1017.8          1
WILMETTE HARBOR            76 71  100/ 10/ 12   N/A           1/ 2
HARRISON CRIB              81      90/ 15/ 15   N/A
BURNHAM HARBOR             80                   N/A
CALUMET HARBOR             80      30/  7/  9 1016.0F
BURNS HARBOR               76      20/ 11/ 13 1016.9F
MICHIGAN CITY              80     360/ 10/ 10   N/A
MICHIGAN CITY 6N           78 74   40/  8/ 10   N/A           1
ST. JOSEPH                 76 74   40/  6/  6 1016.6          0
$$

ILZ025>027-034>036-040-047-049-050-058-095>099-242200-
WEST-CENTRAL ILLINOIS

CITY           SKY/WX    TMP DP  RH WIND       PRES   REMARKS
QUINCY         SUNNY     90  61  37 S10       29.96F HX  90
GALESBURG*     MOSUNNY   89  62  39 S8        29.99F HX  89
MACOMB*        MOSUNNY   92  59  33 SE9       30.00F HX  91
JACKSONVILLE*  MOSUNNY   91  60  35 S7        29.97F HX  91
PITTSFIELD*    SUNNY     89  62  40 S3        29.98F HX  90
$$

ILZ028>032-037-038-041>044-048-051>054-059>061-242200-
CENTRAL ILLINOIS

CITY           SKY/WX    TMP DP  RH WIND       PRES   REMARKS
PONTIAC        SUNNY     91  57  32 S7        30.00F HX  89
BLOOMINGTON    SUNNY     88  60  38 VRB5      30.01F HX  87
DECATUR        SUNNY     91  56  30 S8        29.99F HX  89
PEORIA         MOSUNNY   90  61  37 E7        29.98F HX  90
LACON*         MOSUNNY   91  64  40 SW5       29.98F HX  92
LINCOLN*       MOSUNNY   90  61  37 S3        29.98F HX  90
SPRINGFIELD    SUNNY     93  61  34 SE10      29.97F HX  93
TAYLORVILLE    PTSUNNY   92  59  32 E6        29.98F HX  91
$$

ILZ033-039-045-046-055>057-062-063-242200-
EAST-CENTRAL ILLINOIS

CITY           SKY/WX    TMP DP  RH WIND       PRES   REMARKS
CHAMPAIGN      MOSUNNY   93  54  26 S9        30.00F HX  91
RANTOUL*       MOSUNNY   92  60  33 E5        30.00F HX  92
MATTOON        SUNNY     92  57  30 S7        29.98F HX  90
PARIS*         MOSUNNY   92  55  28 SE9       30.01F HX  90
$$

ILZ079-100>102-242200-
SOUTHWEST ILLINOIS

CITY           SKY/WX    TMP DP  RH WIND       PRES   REMARKS
ALTON          MOSUNNY   91  64  40 SE10      29.97F HX  93
BELLEVILLE     MOSUNNY   90  64  41 SE7       29.94F HX  91
CAHOKIA*       SUNNY     93  61  34 E5        29.95F HX  93
SPARTA*        PTSUNNY   92  62  37 SE7       29.96F HX  92
$$

ILZ064>066-069>071-074>076-080>082-084>086-088>090-092>094-242200-
SOUTH-CENTRAL ILLINOIS

CITY           SKY/WX    TMP DP  RH WIND       PRES   REMARKS
CARBONDALE     SUNNY     89  63  41 S3        29.95F HX  90
CAIRO*         CLOUDY    88  67  49 E3        29.95F HX  90
EFFINGHAM*     MOSUNNY   94  58  29 E8        29.99F HX  93
MARION         PTSUNNY   93  59  31 W6        29.97F HX  92
MT. VERNON       N/A     94  59  31 VRB5      29.96F HX  93
CENTRALIA*     SUNNY     91  59  34 CALM      29.96F HX  89
SALEM*         MOSUNNY   92  55  29 CALM      29.97F HX  90
METROPOLIS*    SUNNY     91  66  42 SE7       29.96F HX  94
$$

ILZ067-068-072-073-078-083-087-091-242200-
SOUTHEAST ILLINOIS

CITY           SKY/WX    TMP DP  RH WIND       PRES   REMARKS
LAWRENCEVILLE  MOSUNNY   92  61  35 SE9       29.98F HX  92
FLORA*         SUNNY     92  60  34 E5        29.98F HX  91
FAIRFIELD*     MOSUNNY   93  56  29 E3        29.96F HX  91
HARRISBURG*    MOSUNNY   92  64  39 E7        29.96F HX  94
ROBINSON*      SUNNY     92  58  32 CALM      29.99F HX  90
CARMI*         SUNNY     93  61  34 E7        29.97F HX  93
$$

ABBREVIATIONS USED IN REMARKS
   TC - TEMPERATURE IN CELSIUS
  WCI - WIND CHILL INDEX
   HX - HEAT INDEX
  VSB - VISIBILITY
$$





USA.gov is the U.S. government's official web portal to all federal, state and local government web resources and services.